THORAD AGENA D DEB, 26821

Orbit data source: Space-Track

THORAD AGENA D DEB, 26821 is space debris in SSO originally from a launch on Wed, 08 Apr 1970 UTC launched from the Air Force Western Test Range (AFWTR). Debris objects in space refer to the collection of defunct objects orbiting the Earth. Examples of debris include non-operational satellites, rocket bodies, and fragments generated from explosions, collisions, or faulty payload assembly.

Loading next visibility...
Identifier
26821, 1970-025QQ
Orbit
SSO
Country
Flag of USUS
Related business
Manufacturer
Unknown
Mission
Spacecraft
Bus & Motor
Unknown
Mass
Unknown
Launch date (UTC)
1970-04-08 (56 years ago)
Launch vehicle
Unknown
Launch site
Air Force Western Test Range (AFWTR)
Object type
Payload
Rocket body
Debris
Shape & HBR
Unknown shape, 0.1 m
Radar Cross Section
Small (<0.1 m²)

Expand to show TLE details & history
Last TLE update: 9 hours ago

TLE from 9 hours ago
0 THORAD AGENA D DEB
1 26821U 70025QQ  26037.39872564  .00034341  00000-0  55324-2 0  9991
2 26821  99.9861  10.9588 0041803  35.1907 116.5234 14.70792221687812
Epoch: 2026-02-06T09:34Z
TLE epoch observation values (Epoch: 2026-02-06T09:34:09.895Z)
Latitude
27.44296°
Longitude
-83.90166°
Altitude
675.142 km
Speed
7.515 km/s
True Right ascension
13h 04m 42s
True Declination
27° 18' 03"
Sunlit
Object was in full shadow at epoch
Visualization orbit readout
Latitude
Unknown
Longitude
Unknown
Altitude
Unknown
Speed
Unknown
Apparent Right ascension
Unknown
Apparent Declination
Unknown
Sunlit
N/A
Visualization observer readout
Local Sidereal Time
21:03:57
Azimuth
Unknown
Elevation
Unknown
Doppler factor
Unknown
Orbital elements
Apogee altitude
685.102 km
Perigee altitude
626.295 km
Semi-major axis
7,033.835 km
Eccentricity
0.00418
Inclination
99.9861°
RAAN
10.9588°
Arg. of periapsis
35.1907°
True anomaly
116.95101°
Mean anomaly
116.5234°
Eccentric anomaly
116.7373°
Mean motion
3.67921 °/min
Orbital period
97.85 mins
BSTAR
0.0055324
Loading maneuver chart data...
Computing Atmospheric mass density...

Documentation

Showing up to 5 results
|